GFSNE_prec_precacc24_120.txt.gz
Total_Precipitation_Accumulation
0.89 0.89 0.88 0.79 0.83 0.97 1.14 1.33 1.52 1.29 0.69 0.32 0.37 0.40 0.41 0.37 0.42 0.36 0.22 0.30 0.23 0.13 0.13 0.16 0.17 0.21 0.28 0.38 0.52 0.68 0.94 1.22 1.19 1.01 0.89 0.88 0.57 0.36
0.90 0.88 0.90 0.91 0.89 0.83 0.77 0.82 0.99 1.14 0.84 0.23 0.18 0.22 0.31 0.43 0.72 0.84 0.79 0.94 0.65 0.45 0.35 0.28 0.21 0.16 0.17 0.20 0.24 0.29 0.40 0.62 0.79 0.79 0.76 0.77 0.89 0.72
0.78 0.94 1.00 1.11 1.24 1.23 1.27 1.31 1.32 1.42 1.38 0.65 0.42 0.41 0.42 0.40 0.39 0.46 0.64 0.75 0.85 0.96 0.80 0.62 0.48 0.38 0.30 0.28 0.28 0.27 0.27 0.30 0.37 0.43 0.46 0.46 0.44 0.60
0.15 0.21 0.26 0.38 0.55 0.71 0.88 1.02 1.16 1.32 1.57 1.14 0.69 0.68 0.72 0.72 0.67 0.55 0.54 0.60 0.65 0.89 0.93 0.91 0.84 0.69 0.58 0.53 0.44 0.36 0.30 0.25 0.23 0.25 0.28 0.30 0.36 0.37
0.00 0.01 0.02 0.04 0.06 0.10 0.16 0.22 0.29 0.37 0.51 0.57 0.42 0.43 0.55 0.74 0.88 0.85 0.77 0.75 0.74 0.98 0.94 0.93 0.96 0.89 0.80 0.73 0.73 0.70 0.56 0.37 0.27 0.24 0.25 0.24 0.26 0.38
0.00 0.00 0.00 0.00 0.00 0.00 0.01 0.01 0.02 0.06 0.10 0.14 0.12 0.15 0.20 0.31 0.48 0.58 0.58 0.52 0.47 0.49 0.56 0.56 0.64 0.64 0.69 0.72 0.63 0.57 0.59 0.56 0.54 0.46 0.32 0.27 0.24 0.26
0.00 0.00 0.00 0.00 0.01 0.01 0.00 0.00 0.01 0.03 0.04 0.04 0.06 0.07 0.11 0.17 0.21 0.25 0.30 0.37 0.44 0.49 0.41 0.33 0.27 0.23 0.28 0.40 0.52 0.60 0.56 0.51 0.45 0.42 0.37 0.32 0.28 0.27
0.00 0.00 0.00 0.00 0.00 0.00 0.00 0.02 0.02 0.03 0.03 0.05 0.04 0.03 0.03 0.05 0.12 0.20 0.29 0.37 0.38 0.32 0.32 0.29 0.26 0.21 0.15 0.15 0.27 0.39 0.45 0.43 0.37 0.31 0.30 0.35 0.36 0.32
0.00 0.00 0.00 0.00 0.00 0.00 0.00 0.00 0.01 0.02 0.05 0.05 0.03 0.05 0.05 0.05 0.08 0.10 0.10 0.11 0.10 0.09 0.21 0.30 0.29 0.30 0.22 0.23 0.24 0.18 0.28 0.34 0.32 0.29 0.29 0.30 0.34 0.43
0.00 0.00 0.00 0.00 0.00 0.00 0.00 0.00 0.00 0.01 0.03 0.06 0.05 0.06 0.10 0.13 0.16 0.15 0.09 0.08 0.09 0.08 0.14 0.21 0.16 0.22 0.20 0.22 0.31 0.27 0.29 0.31 0.31 0.30 0.26 0.27 0.31 0.34
0.00 0.00 0.00 0.00 0.00 0.00 0.00 0.00 0.00 0.00 0.03 0.09 0.13 0.19 0.21 0.22 0.17 0.16 0.23 0.24 0.22 0.13 0.09 0.09 0.09 0.14 0.16 0.17 0.20 0.29 0.31 0.36 0.42 0.47 0.37 0.31 0.31 0.35
0.00 0.00 0.00 0.00 0.00 0.01 0.01 0.01 0.01 0.00 0.00 0.02 0.05 0.12 0.20 0.25 0.30 0.20 0.12 0.14 0.22 0.30 0.27 0.23 0.14 0.10 0.12 0.12 0.15 0.22 0.24 0.28 0.30 0.35 0.57 0.60 0.44 0.37
0.00 0.00 0.00 0.00 0.01 0.02 0.03 0.02 0.03 0.03 0.03 0.02 0.03 0.10 0.17 0.26 0.30 0.31 0.29 0.28 0.23 0.16 0.14 0.22 0.24 0.26 0.24 0.11 0.06 0.11 0.12 0.16 0.20 0.23 0.31 0.43 0.56 0.44
0.00 0.00 0.00 0.00 0.02 0.02 0.02 0.02 0.04 0.05 0.03 0.03 0.03 0.06 0.13 0.19 0.25 0.30 0.38 0.47 0.45 0.37 0.24 0.22 0.17 0.17 0.19 0.18 0.15 0.11 0.12 0.11 0.14 0.15 0.20 0.37 0.48 0.46
0.01 0.01 0.02 0.02 0.02 0.01 0.01 0.01 0.02 0.01 0.02 0.02 0.03 0.05 0.06 0.11 0.20 0.35 0.47 0.50 0.57 0.60 0.54 0.52 0.43 0.30 0.25 0.21 0.14 0.11 0.18 0.19 0.14 0.13 0.16 0.27 0.37 0.42
0.01 0.02 0.03 0.03 0.02 0.01 0.00 0.00 0.01 0.02 0.05 0.08 0.06 0.06 0.09 0.14 0.20 0.29 0.37 0.40 0.45 0.45 0.51 0.53 0.50 0.48 0.45 0.39 0.31 0.20 0.17 0.22 0.26 0.20 0.19 0.25 0.33 0.37
0.05 0.05 0.02 0.01 0.01 0.01 0.00 0.00 0.01 0.02 0.06 0.08 0.10 0.11 0.11 0.14 0.16 0.16 0.25 0.32 0.42 0.41 0.37 0.39 0.47 0.50 0.47 0.41 0.41 0.36 0.27 0.19 0.17 0.23 0.25 0.25 0.25 0.28
0.06 0.06 0.03 0.03 0.03 0.03 0.02 0.02 0.01 0.03 0.06 0.09 0.10 0.11 0.13 0.13 0.15 0.22 0.25 0.27 0.33 0.32 0.39 0.43 0.43 0.55 0.60 0.54 0.46 0.38 0.35 0.25 0.17 0.13 0.17 0.23 0.20 0.16
0.06 0.04 0.03 0.02 0.02 0.01 0.01 0.01 0.01 0.01 0.04 0.09 0.13 0.13 0.16 0.20 0.28 0.24 0.24 0.31 0.31 0.33 0.40 0.46 0.54 0.61 0.61 0.46 0.35 0.33 0.33 0.33 0.25 0.19 0.18 0.17 0.15 0.12
0.02 0.02 0.01 0.01 0.02 0.02 0.02 0.03 0.03 0.02 0.02 0.05 0.12 0.16 0.20 0.27 0.29 0.23 0.24 0.25 0.25 0.27 0.35 0.43 0.48 0.46 0.45 0.29 0.32 0.35 0.34 0.39 0.36 0.24 0.20 0.21 0.21 0.22
0.01 0.02 0.02 0.02 0.02 0.03 0.03 0.04 0.04 0.05 0.06 0.10 0.09 0.13 0.16 0.23 0.23 0.24 0.29 0.26 0.24 0.26 0.26 0.23 0.21 0.38 0.54 0.56 0.66 0.54 0.50 0.48 0.45 0.34 0.21 0.18 0.23 0.27
0.03 0.03 0.03 0.03 0.03 0.04 0.04 0.07 0.10 0.08 0.05 0.05 0.04 0.05 0.08 0.16 0.24 0.24 0.25 0.29 0.21 0.16 0.18 0.26 0.44 0.52 0.57 0.53 0.36 0.27 0.35 0.42 0.47 0.45 0.39 0.31 0.26 0.17
0.05 0.06 0.04 0.04 0.05 0.09 0.10 0.10 0.08 0.05 0.04 0.07 0.06 0.06 0.08 0.12 0.14 0.18 0.23 0.26 0.23 0.24 0.23 0.31 0.43 0.47 0.47 0.39 0.36 0.37 0.36 0.38 0.33 0.35 0.38 0.32 0.22 0.12

GFSNE_prec_precacc24_126.txt.gz
Total_Precipitation_Accumulation
0.54 0.52 0.50 0.47 0.53 0.65 0.79 0.93 1.05 0.85 0.45 0.26 0.33 0.34 0.33 0.28 0.31 0.25 0.15 0.18 0.16 0.09 0.10 0.14 0.16 0.21 0.27 0.38 0.53 0.70 0.96 1.26 1.26 1.15 1.09 1.09 0.79 0.59
0.50 0.51 0.56 0.59 0.55 0.49 0.45 0.52 0.66 0.77 0.55 0.16 0.16 0.17 0.21 0.34 0.57 0.64 0.56 0.63 0.46 0.33 0.27 0.26 0.23 0.18 0.19 0.23 0.27 0.31 0.41 0.65 0.82 0.84 0.84 0.92 1.10 0.97
0.23 0.27 0.33 0.43 0.57 0.65 0.75 0.81 0.85 0.93 0.81 0.32 0.24 0.24 0.26 0.29 0.30 0.34 0.42 0.55 0.67 0.77 0.71 0.69 0.57 0.48 0.44 0.41 0.37 0.34 0.32 0.33 0.42 0.49 0.53 0.53 0.55 0.79
0.01 0.02 0.04 0.08 0.15 0.23 0.31 0.45 0.64 0.80 0.95 0.71 0.49 0.52 0.59 0.62 0.56 0.46 0.42 0.44 0.45 0.64 0.81 0.93 0.90 0.81 0.79 0.79 0.69 0.57 0.46 0.37 0.31 0.31 0.35 0.45 0.49 0.49
0.00 0.00 0.00 0.00 0.01 0.03 0.06 0.11 0.17 0.23 0.32 0.32 0.22 0.24 0.34 0.49 0.56 0.56 0.55 0.58 0.57 0.77 0.84 0.91 0.98 0.96 0.87 0.82 0.86 0.92 0.91 0.72 0.50 0.42 0.40 0.35 0.41 0.57
0.00 0.00 0.00 0.00 0.00 0.00 0.00 0.00 0.00 0.01 0.02 0.06 0.06 0.07 0.11 0.16 0.22 0.26 0.27 0.28 0.28 0.32 0.46 0.53 0.63 0.68 0.78 0.80 0.73 0.70 0.78 0.94 1.04 0.94 0.70 0.59 0.49 0.42
0.00 0.00 0.00 0.00 0.00 0.00 0.00 0.00 0.00 0.00 0.00 0.01 0.02 0.01 0.01 0.01 0.02 0.06 0.09 0.16 0.20 0.30 0.29 0.29 0.26 0.23 0.28 0.43 0.59 0.72 0.73 0.76 0.84 0.93 0.94 0.84 0.77 0.70
0.00 0.00 0.00 0.00 0.00 0.00 0.00 0.00 0.00 0.00 0.00 0.01 0.01 0.01 0.01 0.01 0.00 0.00 0.01 0.05 0.08 0.14 0.18 0.18 0.21 0.20 0.16 0.16 0.28 0.41 0.54 0.62 0.65 0.66 0.75 0.90 0.86 0.77
0.00 0.00 0.00 0.00 0.00 0.00 0.00 0.00 0.00 0.00 0.01 0.01 0.01 0.00 0.01 0.01 0.02 0.02 0.02 0.03 0.03 0.03 0.09 0.15 0.16 0.21 0.19 0.23 0.25 0.23 0.32 0.41 0.47 0.53 0.60 0.63 0.77 0.94
0.00 0.00 0.00 0.00 0.00 0.00 0.00 0.00 0.00 0.00 0.00 0.00 0.00 0.01 0.01 0.02 0.03 0.04 0.03 0.02 0.01 0.01 0.06 0.14 0.11 0.16 0.16 0.21 0.32 0.30 0.32 0.34 0.35 0.38 0.43 0.53 0.59 0.65
0.00 0.00 0.00 0.00 0.00 0.00 0.00 0.00 0.00 0.00 0.00 0.00 0.00 0.01 0.01 0.01 0.02 0.03 0.05 0.06 0.05 0.05 0.05 0.07 0.06 0.11 0.15 0.17 0.20 0.29 0.31 0.37 0.43 0.49 0.42 0.41 0.50 0.58
0.00 0.00 0.00 0.00 0.00 0.01 0.01 0.01 0.03 0.00 0.00 0.00 0.00 0.00 0.00 0.00 0.00 0.01 0.01 0.04 0.06 0.08 0.06 0.08 0.07 0.06 0.12 0.12 0.15 0.22 0.24 0.28 0.30 0.36 0.58 0.64 0.52 0.50
0.00 0.00 0.00 0.00 0.01 0.02 0.04 0.03 0.04 0.03 0.02 0.00 0.00 0.00 0.00 0.00 0.00 0.00 0.02 0.06 0.08 0.08 0.05 0.11 0.13 0.11 0.16 0.10 0.06 0.11 0.12 0.16 0.20 0.24 0.32 0.45 0.62 0.55
0.00 0.00 0.00 0.00 0.03 0.04 0.03 0.02 0.02 0.03 0.02 0.02 0.01 0.00 0.00 0.00 0.00 0.00 0.02 0.07 0.14 0.19 0.15 0.18 0.17 0.12 0.15 0.16 0.11 0.10 0.12 0.11 0.14 0.15 0.20 0.38 0.50 0.56
0.01 0.01 0.02 0.03 0.03 0.02 0.01 0.01 0.02 0.01 0.01 0.01 0.00 0.00 0.00 0.00 0.01 0.01 0.03 0.07 0.14 0.19 0.25 0.38 0.38 0.29 0.24 0.19 0.13 0.10 0.18 0.19 0.14 0.13 0.16 0.27 0.38 0.50
0.00 0.02 0.03 0.04 0.02 0.01 0.00 0.00 0.00 0.01 0.02 0.04 0.03 0.02 0.02 0.02 0.02 0.02 0.03 0.05 0.10 0.14 0.22 0.31 0.39 0.43 0.44 0.39 0.30 0.20 0.17 0.22 0.26 0.20 0.19 0.25 0.34 0.42
0.05 0.04 0.01 0.01 0.01 0.01 0.00 0.00 0.01 0.01 0.02 0.02 0.04 0.04 0.02 0.01 0.01 0.01 0.04 0.07 0.12 0.12 0.16 0.25 0.33 0.41 0.43 0.40 0.41 0.36 0.27 0.19 0.17 0.23 0.25 0.26 0.25 0.31
0.05 0.05 0.02 0.02 0.02 0.02 0.02 0.01 0.01 0.01 0.01 0.01 0.02 0.01 0.02 0.02 0.02 0.01 0.05 0.10 0.12 0.11 0.16 0.23 0.33 0.49 0.57 0.53 0.46 0.39 0.35 0.26 0.18 0.14 0.18 0.24 0.20 0.17
0.03 0.01 0.01 0.01 0.01 0.01 0.01 0.01 0.01 0.00 0.00 0.01 0.03 0.03 0.04 0.04 0.05 0.04 0.04 0.11 0.13 0.11 0.16 0.24 0.38 0.55 0.61 0.45 0.35 0.33 0.34 0.35 0.27 0.20 0.18 0.18 0.16 0.12
0.01 0.01 0.01 0.01 0.01 0.02 0.02 0.02 0.03 0.02 0.02 0.02 0.02 0.03 0.05 0.10 0.08 0.06 0.08 0.11 0.14 0.16 0.20 0.25 0.37 0.42 0.47 0.31 0.34 0.36 0.34 0.39 0.36 0.25 0.21 0.21 0.21 0.22
0.01 0.01 0.02 0.02 0.02 0.03 0.03 0.04 0.05 0.05 0.06 0.10 0.07 0.07 0.06 0.08 0.07 0.07 0.12 0.13 0.17 0.18 0.18 0.18 0.19 0.37 0.55 0.55 0.63 0.53 0.50 0.48 0.45 0.34 0.21 0.20 0.24 0.27
0.01 0.02 0.02 0.02 0.03 0.04 0.04 0.07 0.11 0.08 0.06 0.05 0.03 0.04 0.04 0.07 0.10 0.09 0.09 0.13 0.11 0.10 0.13 0.18 0.35 0.47 0.56 0.54 0.37 0.27 0.34 0.42 0.47 0.45 0.40 0.32 0.28 0.20
0.01 0.02 0.02 0.02 0.05 0.08 0.10 0.11 0.09 0.05 0.04 0.07 0.05 0.03 0.05 0.08 0.05 0.07 0.07 0.11 0.14 0.15 0.13 0.19 0.33 0.43 0.46 0.39 0.37 0.37 0.36 0.38 0.33 0.36 0.38 0.32 0.23 0.13

GFSNE_prec_precacc24_129.txt.gz
Total_Precipitation_Accumulation
0.30 0.31 0.36 0.40 0.49 0.60 0.71 0.82 0.91 0.71 0.38 0.25 0.31 0.33 0.32 0.27 0.29 0.22 0.13 0.16 0.14 0.07 0.08 0.09 0.10 0.14 0.20 0.30 0.43 0.56 0.92 1.26 1.27 1.15 1.09 1.10 0.80 0.62
0.25 0.30 0.38 0.44 0.45 0.43 0.38 0.43 0.53 0.62 0.44 0.15 0.15 0.16 0.18 0.30 0.54 0.61 0.55 0.62 0.45 0.32 0.27 0.24 0.20 0.14 0.13 0.18 0.23 0.27 0.38 0.64 0.83 0.84 0.84 0.92 1.11 0.98
0.12 0.15 0.20 0.24 0.33 0.40 0.50 0.59 0.67 0.79 0.65 0.28 0.23 0.21 0.22 0.23 0.22 0.26 0.37 0.53 0.67 0.76 0.68 0.65 0.53 0.42 0.36 0.31 0.29 0.30 0.31 0.33 0.42 0.49 0.53 0.54 0.56 0.79
0.00 0.00 0.01 0.02 0.04 0.05 0.10 0.18 0.28 0.39 0.46 0.37 0.33 0.42 0.48 0.55 0.50 0.40 0.39 0.41 0.44 0.61 0.72 0.77 0.75 0.73 0.72 0.72 0.65 0.55 0.45 0.37 0.31 0.31 0.35 0.45 0.49 0.49
0.00 0.00 0.00 0.00 0.00 0.00 0.01 0.02 0.06 0.09 0.14 0.17 0.15 0.20 0.31 0.47 0.54 0.53 0.52 0.55 0.55 0.71 0.73 0.74 0.75 0.70 0.70 0.76 0.84 0.92 0.91 0.72 0.50 0.42 0.40 0.36 0.42 0.58
0.00 0.00 0.00 0.00 0.00 0.00 0.00 0.00 0.00 0.00 0.01 0.03 0.04 0.07 0.11 0.16 0.22 0.25 0.25 0.26 0.26 0.29 0.37 0.42 0.52 0.59 0.69 0.76 0.72 0.70 0.78 0.94 1.04 0.94 0.71 0.61 0.50 0.43
0.00 0.00 0.00 0.00 0.00 0.00 0.00 0.00 0.00 0.00 0.00 0.00 0.00 0.00 0.00 0.00 0.02 0.06 0.09 0.14 0.16 0.27 0.25 0.22 0.20 0.19 0.27 0.42 0.59 0.72 0.73 0.76 0.84 0.93 0.94 0.84 0.78 0.71
0.00 0.00 0.00 0.00 0.00 0.00 0.00 0.00 0.00 0.00 0.00 0.01 0.00 0.00 0.00 0.00 0.00 0.00 0.00 0.02 0.03 0.10 0.15 0.14 0.17 0.17 0.15 0.15 0.28 0.41 0.54 0.62 0.65 0.66 0.75 0.90 0.87 0.78
0.00 0.00 0.00 0.00 0.00 0.00 0.00 0.00 0.00 0.00 0.00 0.00 0.00 0.00 0.00 0.00 0.01 0.02 0.02 0.03 0.01 0.01 0.02 0.05 0.11 0.16 0.16 0.22 0.25 0.23 0.32 0.41 0.47 0.53 0.60 0.63 0.77 0.95
0.00 0.00 0.00 0.00 0.00 0.00 0.00 0.00 0.00 0.00 0.00 0.00 0.00 0.00 0.00 0.01 0.02 0.04 0.03 0.02 0.00 0.00 0.01 0.03 0.03 0.10 0.12 0.16 0.28 0.29 0.32 0.34 0.35 0.38 0.43 0.53 0.59 0.65
0.00 0.00 0.00 0.00 0.00 0.00 0.00 0.00 0.00 0.00 0.00 0.00 0.00 0.01 0.01 0.01 0.01 0.01 0.01 0.01 0.01 0.01 0.00 0.02 0.01 0.02 0.06 0.11 0.17 0.28 0.31 0.37 0.43 0.49 0.42 0.41 0.50 0.58
0.00 0.00 0.00 0.00 0.00 0.01 0.01 0.01 0.03 0.01 0.00 0.00 0.00 0.00 0.00 0.00 0.00 0.00 0.01 0.02 0.03 0.03 0.01 0.01 0.01 0.01 0.04 0.04 0.08 0.19 0.23 0.27 0.30 0.36 0.58 0.64 0.52 0.50
0.00 0.00 0.00 0.00 0.01 0.02 0.04 0.03 0.04 0.03 0.02 0.00 0.00 0.00 0.00 0.00 0.00 0.00 0.00 0.01 0.04 0.05 0.02 0.06 0.06 0.04 0.06 0.04 0.03 0.08 0.12 0.16 0.20 0.24 0.32 0.45 0.62 0.55
0.00 0.00 0.00 0.00 0.03 0.04 0.03 0.02 0.03 0.03 0.02 0.02 0.01 0.00 0.00 0.00 0.00 0.00 0.00 0.00 0.01 0.03 0.02 0.05 0.08 0.05 0.07 0.06 0.05 0.05 0.09 0.10 0.13 0.15 0.20 0.38 0.50 0.56
0.01 0.01 0.02 0.03 0.03 0.02 0.01 0.01 0.02 0.01 0.01 0.00 0.00 0.00 0.00 0.00 0.00 0.00 0.00 0.00 0.01 0.01 0.01 0.03 0.04 0.04 0.08 0.08 0.05 0.03 0.07 0.10 0.12 0.12 0.16 0.27 0.39 0.50
0.00 0.02 0.03 0.03 0.01 0.00 0.00 0.00 0.00 0.01 0.02 0.04 0.03 0.02 0.02 0.02 0.02 0.01 0.02 0.01 0.02 0.01 0.00 0.02 0.05 0.06 0.09 0.07 0.07 0.07 0.09 0.14 0.19 0.18 0.19 0.25 0.34 0.42
0.04 0.03 0.01 0.00 0.00 0.00 0.00 0.00 0.01 0.01 0.01 0.02 0.03 0.04 0.02 0.01 0.01 0.01 0.02 0.03 0.05 0.02 0.01 0.01 0.02 0.06 0.10 0.13 0.15 0.12 0.17 0.17 0.16 0.22 0.26 0.26 0.25 0.31
0.04 0.03 0.01 0.00 0.01 0.01 0.01 0.00 0.00 0.00 0.00 0.00 0.01 0.01 0.01 0.02 0.02 0.01 0.03 0.06 0.07 0.03 0.02 0.01 0.06 0.13 0.15 0.18 0.22 0.16 0.17 0.19 0.17 0.14 0.18 0.24 0.20 0.17
0.01 0.00 0.00 0.01 0.00 0.00 0.00 0.00 0.00 0.00 0.00 0.01 0.02 0.03 0.03 0.04 0.03 0.04 0.03 0.05 0.06 0.03 0.02 0.04 0.12 0.27 0.31 0.18 0.14 0.16 0.19 0.23 0.24 0.20 0.18 0.18 0.16 0.12
0.00 0.00 0.00 0.00 0.01 0.01 0.01 0.01 0.02 0.02 0.02 0.01 0.02 0.03 0.05 0.09 0.07 0.05 0.05 0.07 0.07 0.06 0.06 0.05 0.13 0.20 0.31 0.18 0.19 0.18 0.19 0.26 0.29 0.24 0.21 0.22 0.22 0.22
0.00 0.00 0.01 0.01 0.01 0.02 0.02 0.03 0.04 0.05 0.06 0.10 0.07 0.08 0.06 0.08 0.07 0.05 0.08 0.08 0.12 0.12 0.07 0.03 0.05 0.18 0.38 0.42 0.45 0.33 0.35 0.40 0.41 0.34 0.21 0.21 0.25 0.27
0.00 0.00 0.00 0.01 0.02 0.02 0.03 0.06 0.10 0.07 0.05 0.04 0.03 0.04 0.04 0.07 0.09 0.08 0.07 0.07 0.05 0.06 0.05 0.03 0.11 0.22 0.35 0.41 0.30 0.21 0.28 0.37 0.46 0.45 0.40 0.33 0.31 0.22
0.00 0.01 0.00 0.01 0.03 0.06 0.08 0.10 0.08 0.04 0.04 0.07 0.05 0.03 0.05 0.08 0.05 0.06 0.06 0.07 0.07 0.06 0.06 0.08 0.14 0.21 0.30 0.31 0.33 0.32 0.31 0.34 0.32 0.36 0.38 0.32 0.23 0.13

GFSNE_prec_precacc24_135.txt.gz
Total_Precipitation_Accumulation
0.00 0.00 0.00 0.01 0.03 0.11 0.14 0.23 0.28 0.23 0.18 0.18 0.25 0.27 0.26 0.23 0.24 0.18 0.09 0.13 0.11 0.06 0.05 0.06 0.06 0.08 0.10 0.11 0.14 0.17 0.26 0.42 0.66 0.94 1.07 1.10 0.81 0.62
0.00 0.00 0.00 0.01 0.05 0.08 0.10 0.16 0.21 0.25 0.19 0.09 0.13 0.14 0.12 0.16 0.37 0.47 0.50 0.58 0.42 0.31 0.25 0.22 0.19 0.13 0.11 0.11 0.11 0.10 0.13 0.18 0.27 0.46 0.76 0.91 1.11 0.99
0.00 0.00 0.00 0.00 0.02 0.05 0.08 0.13 0.16 0.22 0.22 0.12 0.15 0.15 0.16 0.16 0.15 0.16 0.30 0.48 0.64 0.72 0.64 0.62 0.52 0.41 0.34 0.27 0.18 0.14 0.11 0.10 0.16 0.25 0.39 0.49 0.56 0.80
0.00 0.00 0.00 0.00 0.00 0.00 0.01 0.01 0.02 0.06 0.10 0.10 0.14 0.18 0.18 0.22 0.18 0.16 0.21 0.26 0.32 0.52 0.62 0.70 0.72 0.71 0.70 0.66 0.56 0.40 0.27 0.20 0.16 0.16 0.23 0.39 0.47 0.48
0.00 0.00 0.00 0.00 0.00 0.00 0.00 0.00 0.00 0.00 0.01 0.02 0.02 0.04 0.05 0.09 0.09 0.11 0.14 0.22 0.27 0.43 0.55 0.65 0.72 0.67 0.63 0.67 0.72 0.79 0.77 0.59 0.40 0.32 0.28 0.26 0.37 0.56
0.00 0.00 0.00 0.00 0.00 0.00 0.00 0.00 0.00 0.00 0.00 0.00 0.00 0.00 0.01 0.01 0.03 0.06 0.07 0.09 0.12 0.19 0.30 0.39 0.50 0.55 0.61 0.60 0.56 0.58 0.65 0.78 0.86 0.77 0.58 0.51 0.44 0.42
0.00 0.00 0.00 0.00 0.00 0.00 0.00 0.00 0.00 0.00 0.00 0.00 0.00 0.00 0.00 0.00 0.01 0.01 0.03 0.07 0.10 0.21 0.20 0.20 0.18 0.16 0.22 0.32 0.45 0.58 0.60 0.61 0.69 0.78 0.81 0.75 0.73 0.71
0.00 0.00 0.00 0.00 0.00 0.00 0.00 0.00 0.00 0.00 0.00 0.00 0.00 0.00 0.00 0.00 0.00 0.00 0.00 0.01 0.02 0.06 0.09 0.10 0.13 0.13 0.13 0.13 0.23 0.31 0.44 0.50 0.53 0.54 0.66 0.84 0.85 0.78
0.00 0.00 0.00 0.00 0.00 0.00 0.00 0.00 0.00 0.00 0.00 0.00 0.00 0.00 0.00 0.00 0.01 0.01 0.02 0.02 0.01 0.00 0.01 0.02 0.05 0.08 0.10 0.15 0.16 0.16 0.23 0.31 0.38 0.48 0.58 0.63 0.76 0.95
0.00 0.00 0.00 0.00 0.00 0.00 0.00 0.00 0.00 0.00 0.00 0.00 0.00 0.00 0.00 0.01 0.02 0.04 0.03 0.02 0.00 0.00 0.00 0.00 0.00 0.01 0.01 0.04 0.08 0.14 0.17 0.22 0.28 0.33 0.41 0.52 0.59 0.65
0.00 0.00 0.00 0.00 0.00 0.00 0.00 0.00 0.00 0.00 0.00 0.00 0.00 0.01 0.01 0.02 0.01 0.01 0.01 0.01 0.01 0.00 0.00 0.01 0.00 0.00 0.00 0.00 0.01 0.03 0.06 0.13 0.24 0.37 0.35 0.39 0.50 0.58
0.01 0.00 0.00 0.00 0.00 0.01 0.01 0.01 0.03 0.01 0.00 0.00 0.00 0.00 0.00 0.00 0.00 0.00 0.00 0.01 0.02 0.02 0.00 0.01 0.00 0.01 0.03 0.00 0.00 0.00 0.00 0.02 0.09 0.20 0.47 0.57 0.49 0.49
0.00 0.00 0.00 0.00 0.01 0.02 0.03 0.02 0.03 0.02 0.02 0.01 0.00 0.00 0.00 0.00 0.00 0.00 0.00 0.00 0.02 0.02 0.00 0.04 0.05 0.02 0.05 0.02 0.00 0.00 0.00 0.00 0.02 0.11 0.24 0.40 0.60 0.54
0.00 0.00 0.00 0.00 0.02 0.03 0.03 0.01 0.02 0.02 0.01 0.00 0.00 0.00 0.00 0.00 0.00 0.00 0.00 0.00 0.01 0.02 0.00 0.02 0.07 0.03 0.07 0.05 0.01 0.00 0.00 0.00 0.00 0.02 0.11 0.30 0.44 0.54
0.00 0.00 0.01 0.02 0.03 0.02 0.00 0.00 0.01 0.00 0.00 0.00 0.00 0.00 0.00 0.00 0.00 0.00 0.00 0.00 0.01 0.01 0.00 0.00 0.02 0.02 0.08 0.09 0.03 0.00 0.00 0.00 0.00 0.01 0.05 0.17 0.33 0.47
0.00 0.01 0.02 0.02 0.01 0.00 0.00 0.00 0.00 0.00 0.00 0.01 0.01 0.01 0.01 0.01 0.01 0.01 0.01 0.01 0.02 0.00 0.00 0.00 0.01 0.02 0.05 0.04 0.06 0.04 0.01 0.01 0.00 0.01 0.03 0.10 0.22 0.33
0.03 0.02 0.01 0.00 0.00 0.00 0.00 0.00 0.00 0.00 0.00 0.00 0.00 0.01 0.02 0.01 0.01 0.00 0.02 0.02 0.05 0.02 0.01 0.00 0.00 0.01 0.02 0.03 0.07 0.02 0.01 0.01 0.01 0.01 0.02 0.03 0.08 0.18
0.03 0.01 0.00 0.00 0.01 0.01 0.00 0.00 0.00 0.00 0.00 0.00 0.01 0.01 0.01 0.02 0.02 0.02 0.03 0.05 0.05 0.02 0.01 0.00 0.01 0.04 0.02 0.01 0.02 0.03 0.02 0.01 0.01 0.02 0.02 0.03 0.01 0.04
0.02 0.00 0.00 0.00 0.01 0.00 0.00 0.00 0.00 0.00 0.00 0.01 0.01 0.02 0.03 0.04 0.03 0.03 0.02 0.03 0.04 0.01 0.01 0.01 0.05 0.14 0.18 0.06 0.00 0.01 0.03 0.03 0.02 0.01 0.01 0.03 0.03 0.01
0.01 0.01 0.01 0.00 0.00 0.00 0.00 0.01 0.01 0.01 0.01 0.01 0.02 0.03 0.04 0.09 0.09 0.06 0.05 0.05 0.05 0.04 0.04 0.02 0.04 0.07 0.20 0.09 0.09 0.02 0.00 0.01 0.01 0.02 0.01 0.02 0.06 0.06
0.00 0.01 0.01 0.01 0.00 0.00 0.00 0.02 0.03 0.03 0.03 0.08 0.07 0.07 0.05 0.09 0.08 0.05 0.07 0.05 0.08 0.12 0.07 0.01 0.00 0.04 0.13 0.20 0.17 0.01 0.00 0.00 0.03 0.03 0.03 0.10 0.08 0.06
0.00 0.01 0.00 0.01 0.01 0.02 0.02 0.03 0.05 0.03 0.03 0.04 0.03 0.03 0.03 0.08 0.09 0.06 0.06 0.07 0.04 0.04 0.04 0.01 0.00 0.03 0.12 0.19 0.09 0.01 0.00 0.00 0.01 0.04 0.08 0.14 0.23 0.18
0.00 0.01 0.01 0.01 0.02 0.04 0.04 0.06 0.05 0.04 0.04 0.07 0.06 0.04 0.04 0.08 0.05 0.07 0.07 0.07 0.06 0.06 0.04 0.04 0.02 0.06 0.10 0.11 0.11 0.06 0.02 0.01 0.02 0.06 0.09 0.11 0.07 0.06

GFSNE_prec_precacc24_141.txt.gz
Total_Precipitation_Accumulation
0.00 0.00 0.00 0.00 0.00 0.00 0.00 0.00 0.00 0.00 0.00 0.00 0.00 0.00 0.00 0.01 0.02 0.03 0.01 0.07 0.07 0.04 0.03 0.03 0.03 0.03 0.03 0.04 0.05 0.05 0.07 0.12 0.21 0.33 0.43 0.47 0.43 0.44
0.00 0.00 0.00 0.00 0.00 0.00 0.00 0.00 0.00 0.00 0.00 0.00 0.00 0.00 0.00 0.02 0.03 0.05 0.04 0.13 0.17 0.16 0.13 0.13 0.12 0.07 0.05 0.05 0.06 0.05 0.05 0.05 0.06 0.10 0.22 0.47 0.86 0.86
0.00 0.00 0.00 0.00 0.00 0.00 0.00 0.00 0.00 0.00 0.00 0.00 0.00 0.00 0.00 0.02 0.04 0.06 0.07 0.07 0.09 0.17 0.25 0.34 0.31 0.27 0.25 0.20 0.14 0.11 0.09 0.07 0.08 0.10 0.12 0.16 0.25 0.59
0.00 0.00 0.00 0.00 0.00 0.00 0.00 0.00 0.00 0.00 0.00 0.00 0.00 0.00 0.00 0.00 0.00 0.02 0.05 0.07 0.08 0.12 0.19 0.30 0.30 0.33 0.45 0.56 0.51 0.38 0.26 0.19 0.14 0.10 0.12 0.20 0.21 0.23
0.00 0.00 0.00 0.00 0.00 0.00 0.00 0.00 0.00 0.00 0.00 0.00 0.00 0.00 0.00 0.00 0.00 0.00 0.00 0.02 0.04 0.08 0.18 0.25 0.27 0.29 0.31 0.43 0.58 0.71 0.72 0.55 0.36 0.27 0.21 0.15 0.21 0.30
0.00 0.00 0.00 0.00 0.00 0.00 0.00 0.00 0.00 0.00 0.00 0.00 0.00 0.00 0.00 0.00 0.00 0.00 0.00 0.00 0.00 0.02 0.05 0.09 0.15 0.22 0.31 0.35 0.38 0.45 0.56 0.71 0.77 0.66 0.48 0.40 0.32 0.22
0.00 0.00 0.00 0.00 0.00 0.00 0.00 0.00 0.00 0.00 0.00 0.00 0.00 0.00 0.00 0.00 0.00 0.00 0.00 0.00 0.01 0.02 0.01 0.02 0.03 0.05 0.09 0.16 0.26 0.36 0.40 0.45 0.57 0.66 0.68 0.59 0.54 0.48
0.00 0.00 0.00 0.00 0.00 0.00 0.00 0.00 0.00 0.00 0.00 0.00 0.00 0.00 0.00 0.00 0.00 0.00 0.00 0.01 0.00 0.00 0.01 0.01 0.03 0.03 0.04 0.06 0.10 0.15 0.26 0.36 0.43 0.45 0.52 0.61 0.56 0.49
0.00 0.00 0.00 0.00 0.00 0.00 0.00 0.00 0.00 0.00 0.00 0.00 0.00 0.00 0.00 0.00 0.01 0.01 0.02 0.02 0.01 0.00 0.00 0.01 0.01 0.03 0.01 0.02 0.05 0.09 0.11 0.18 0.27 0.37 0.42 0.41 0.48 0.57
0.00 0.00 0.00 0.00 0.00 0.00 0.00 0.00 0.00 0.00 0.00 0.00 0.00 0.00 0.00 0.01 0.02 0.04 0.04 0.03 0.01 0.00 0.00 0.00 0.00 0.00 0.00 0.00 0.02 0.05 0.07 0.09 0.12 0.17 0.25 0.32 0.33 0.35
0.00 0.01 0.01 0.00 0.00 0.01 0.01 0.00 0.00 0.00 0.00 0.00 0.00 0.01 0.01 0.02 0.02 0.03 0.04 0.03 0.01 0.00 0.00 0.00 0.00 0.00 0.00 0.00 0.00 0.01 0.01 0.04 0.07 0.09 0.12 0.16 0.22 0.26
0.02 0.02 0.01 0.00 0.00 0.01 0.01 0.01 0.02 0.01 0.00 0.00 0.00 0.00 0.00 0.00 0.00 0.00 0.00 0.02 0.02 0.02 0.00 0.00 0.00 0.01 0.03 0.00 0.00 0.00 0.00 0.01 0.02 0.06 0.11 0.16 0.18 0.23
0.01 0.00 0.00 0.01 0.01 0.01 0.02 0.02 0.02 0.01 0.01 0.01 0.00 0.00 0.00 0.00 0.00 0.00 0.00 0.01 0.02 0.02 0.00 0.04 0.05 0.01 0.05 0.02 0.00 0.00 0.00 0.00 0.00 0.03 0.09 0.15 0.26 0.28
0.00 0.00 0.00 0.00 0.02 0.03 0.02 0.01 0.01 0.01 0.01 0.00 0.00 0.00 0.00 0.00 0.00 0.00 0.00 0.00 0.01 0.02 0.00 0.02 0.07 0.02 0.07 0.06 0.01 0.00 0.00 0.00 0.00 0.00 0.04 0.12 0.23 0.33
0.00 0.00 0.00 0.01 0.01 0.01 0.00 0.00 0.00 0.00 0.00 0.01 0.01 0.00 0.00 0.00 0.00 0.00 0.00 0.00 0.01 0.01 0.00 0.00 0.02 0.02 0.08 0.09 0.04 0.00 0.00 0.00 0.00 0.00 0.01 0.07 0.21 0.32
0.00 0.00 0.01 0.02 0.01 0.00 0.00 0.00 0.00 0.00 0.01 0.01 0.00 0.00 0.00 0.00 0.01 0.01 0.01 0.01 0.02 0.00 0.00 0.00 0.00 0.02 0.05 0.04 0.06 0.04 0.01 0.01 0.00 0.00 0.01 0.03 0.11 0.24
0.01 0.01 0.01 0.00 0.00 0.00 0.00 0.00 0.00 0.01 0.01 0.01 0.01 0.01 0.01 0.01 0.01 0.00 0.02 0.02 0.05 0.02 0.01 0.00 0.00 0.01 0.02 0.02 0.05 0.02 0.01 0.01 0.00 0.00 0.01 0.01 0.02 0.11
0.02 0.01 0.00 0.00 0.01 0.01 0.01 0.00 0.01 0.01 0.01 0.01 0.01 0.01 0.01 0.01 0.02 0.01 0.03 0.05 0.06 0.02 0.01 0.00 0.01 0.02 0.02 0.01 0.01 0.02 0.01 0.01 0.01 0.00 0.01 0.03 0.01 0.02
0.02 0.00 0.00 0.00 0.01 0.01 0.01 0.01 0.01 0.00 0.01 0.02 0.01 0.02 0.02 0.03 0.02 0.03 0.03 0.03 0.04 0.01 0.01 0.01 0.02 0.07 0.15 0.05 0.00 0.01 0.02 0.03 0.02 0.01 0.00 0.01 0.01 0.00
0.01 0.01 0.01 0.01 0.01 0.01 0.01 0.02 0.02 0.01 0.02 0.02 0.02 0.02 0.02 0.06 0.06 0.04 0.03 0.05 0.05 0.03 0.01 0.01 0.01 0.03 0.14 0.08 0.08 0.02 0.00 0.01 0.01 0.03 0.01 0.01 0.01 0.00
0.00 0.02 0.01 0.02 0.03 0.02 0.01 0.03 0.03 0.03 0.03 0.06 0.04 0.05 0.04 0.08 0.07 0.02 0.03 0.03 0.07 0.12 0.09 0.01 0.00 0.01 0.08 0.20 0.21 0.02 0.00 0.00 0.01 0.05 0.07 0.13 0.07 0.03
0.01 0.02 0.01 0.04 0.05 0.04 0.03 0.03 0.04 0.03 0.03 0.03 0.03 0.03 0.04 0.08 0.08 0.04 0.04 0.05 0.04 0.04 0.04 0.01 0.00 0.01 0.06 0.14 0.10 0.01 0.00 0.00 0.00 0.00 0.03 0.16 0.29 0.25
0.02 0.03 0.03 0.04 0.04 0.05 0.04 0.05 0.04 0.03 0.03 0.05 0.05 0.03 0.05 0.08 0.04 0.05 0.05 0.06 0.06 0.07 0.04 0.05 0.02 0.03 0.07 0.08 0.10 0.06 0.01 0.00 0.00 0.00 0.00 0.00 0.03 0.06

GFSNE_prec_precacc24_144.txt.gz
Total_Precipitation_Accumulation
0.00 0.00 0.00 0.00 0.00 0.00 0.00 0.00 0.00 0.00 0.00 0.00 0.00 0.00 0.00 0.00 0.00 0.00 0.00 0.00 0.01 0.01 0.01 0.01 0.02 0.02 0.01 0.01 0.01 0.01 0.02 0.04 0.08 0.15 0.21 0.22 0.24 0.27
0.00 0.00 0.00 0.00 0.00 0.00 0.00 0.00 0.00 0.00 0.00 0.00 0.00 0.00 0.00 0.00 0.00 0.00 0.00 0.00 0.00 0.01 0.01 0.03 0.06 0.04 0.03 0.03 0.03 0.02 0.01 0.03 0.04 0.05 0.09 0.16 0.23 0.26
0.00 0.00 0.00 0.00 0.00 0.00 0.00 0.00 0.00 0.00 0.00 0.00 0.00 0.00 0.00 0.00 0.00 0.00 0.00 0.00 0.00 0.02 0.05 0.14 0.12 0.11 0.15 0.13 0.10 0.07 0.05 0.04 0.04 0.07 0.08 0.08 0.12 0.21
0.00 0.00 0.00 0.00 0.00 0.00 0.00 0.00 0.00 0.00 0.00 0.00 0.00 0.00 0.00 0.00 0.00 0.00 0.00 0.00 0.01 0.02 0.04 0.09 0.08 0.13 0.21 0.26 0.25 0.20 0.16 0.12 0.08 0.06 0.08 0.16 0.14 0.13
0.00 0.00 0.00 0.00 0.00 0.00 0.00 0.00 0.00 0.00 0.00 0.00 0.00 0.00 0.00 0.00 0.00 0.00 0.00 0.00 0.00 0.00 0.02 0.03 0.03 0.07 0.08 0.09 0.13 0.22 0.35 0.34 0.23 0.18 0.15 0.12 0.17 0.19
0.00 0.00 0.00 0.00 0.00 0.00 0.00 0.00 0.00 0.00 0.00 0.00 0.00 0.00 0.00 0.00 0.00 0.00 0.00 0.00 0.00 0.00 0.00 0.00 0.01 0.05 0.08 0.09 0.09 0.14 0.19 0.38 0.50 0.48 0.39 0.34 0.26 0.17
0.00 0.00 0.00 0.00 0.00 0.00 0.00 0.00 0.00 0.00 0.00 0.00 0.00 0.00 0.00 0.00 0.00 0.00 0.00 0.00 0.00 0.00 0.00 0.00 0.00 0.00 0.00 0.03 0.07 0.12 0.17 0.26 0.39 0.51 0.57 0.52 0.50 0.44
0.00 0.00 0.00 0.00 0.00 0.00 0.00 0.00 0.00 0.00 0.00 0.00 0.00 0.00 0.00 0.00 0.00 0.00 0.00 0.01 0.00 0.00 0.00 0.00 0.00 0.00 0.00 0.01 0.01 0.02 0.09 0.18 0.28 0.35 0.45 0.55 0.51 0.47
0.00 0.00 0.00 0.00 0.00 0.00 0.00 0.00 0.00 0.00 0.01 0.00 0.00 0.00 0.00 0.00 0.00 0.01 0.01 0.01 0.01 0.00 0.00 0.00 0.00 0.00 0.00 0.00 0.02 0.05 0.04 0.07 0.15 0.24 0.31 0.33 0.43 0.52
0.00 0.00 0.00 0.00 0.00 0.00 0.00 0.00 0.00 0.00 0.00 0.00 0.00 0.00 0.00 0.01 0.01 0.02 0.03 0.03 0.01 0.00 0.00 0.01 0.00 0.00 0.00 0.00 0.01 0.03 0.03 0.03 0.04 0.08 0.17 0.26 0.28 0.31
0.00 0.01 0.01 0.00 0.00 0.01 0.01 0.00 0.00 0.00 0.00 0.01 0.01 0.01 0.01 0.01 0.02 0.04 0.05 0.04 0.02 0.00 0.00 0.00 0.00 0.00 0.00 0.00 0.00 0.00 0.00 0.01 0.01 0.02 0.05 0.10 0.19 0.23
0.02 0.02 0.01 0.00 0.00 0.01 0.01 0.01 0.02 0.01 0.01 0.01 0.00 0.00 0.00 0.00 0.00 0.01 0.01 0.03 0.02 0.02 0.00 0.00 0.00 0.01 0.03 0.00 0.00 0.00 0.00 0.00 0.00 0.00 0.01 0.04 0.09 0.13
0.01 0.00 0.00 0.01 0.01 0.01 0.02 0.02 0.03 0.01 0.01 0.01 0.00 0.00 0.00 0.00 0.00 0.00 0.00 0.02 0.03 0.02 0.00 0.04 0.04 0.01 0.05 0.02 0.00 0.00 0.00 0.00 0.00 0.00 0.00 0.01 0.06 0.11
0.00 0.00 0.00 0.00 0.01 0.02 0.02 0.01 0.01 0.02 0.01 0.00 0.00 0.00 0.00 0.00 0.00 0.01 0.02 0.01 0.00 0.01 0.00 0.02 0.06 0.02 0.07 0.07 0.01 0.00 0.00 0.00 0.00 0.00 0.00 0.00 0.02 0.10
0.00 0.00 0.00 0.00 0.01 0.01 0.00 0.00 0.00 0.00 0.00 0.02 0.01 0.00 0.00 0.00 0.01 0.02 0.01 0.00 0.00 0.00 0.00 0.00 0.02 0.02 0.08 0.10 0.04 0.01 0.00 0.00 0.00 0.00 0.00 0.00 0.02 0.08
0.00 0.00 0.00 0.01 0.01 0.00 0.00 0.00 0.00 0.00 0.00 0.01 0.00 0.00 0.00 0.00 0.02 0.01 0.02 0.01 0.02 0.00 0.00 0.00 0.00 0.02 0.04 0.04 0.06 0.05 0.01 0.01 0.00 0.00 0.00 0.00 0.01 0.05
0.00 0.01 0.01 0.00 0.00 0.00 0.00 0.00 0.00 0.01 0.02 0.01 0.01 0.01 0.01 0.01 0.02 0.01 0.02 0.02 0.04 0.02 0.01 0.00 0.00 0.01 0.02 0.02 0.06 0.02 0.01 0.00 0.00 0.00 0.01 0.01 0.00 0.03
0.01 0.01 0.00 0.00 0.01 0.01 0.01 0.00 0.01 0.01 0.01 0.01 0.02 0.01 0.01 0.02 0.02 0.02 0.03 0.05 0.05 0.02 0.01 0.00 0.01 0.02 0.02 0.01 0.01 0.02 0.01 0.01 0.01 0.00 0.01 0.03 0.01 0.01
0.02 0.00 0.00 0.00 0.01 0.01 0.01 0.01 0.01 0.00 0.01 0.03 0.02 0.02 0.03 0.03 0.03 0.03 0.02 0.04 0.04 0.02 0.01 0.01 0.02 0.07 0.14 0.05 0.00 0.00 0.02 0.02 0.02 0.01 0.00 0.01 0.02 0.00
0.01 0.01 0.01 0.01 0.01 0.01 0.01 0.02 0.02 0.02 0.02 0.02 0.03 0.03 0.04 0.06 0.06 0.05 0.03 0.04 0.05 0.03 0.01 0.01 0.01 0.03 0.14 0.08 0.08 0.02 0.00 0.00 0.00 0.02 0.01 0.01 0.01 0.00
0.00 0.02 0.03 0.04 0.04 0.03 0.03 0.04 0.04 0.04 0.03 0.05 0.05 0.06 0.06 0.09 0.07 0.02 0.03 0.03 0.07 0.12 0.09 0.01 0.00 0.01 0.09 0.23 0.23 0.02 0.00 0.00 0.01 0.05 0.07 0.12 0.06 0.02
0.01 0.02 0.02 0.06 0.08 0.08 0.06 0.05 0.06 0.04 0.05 0.04 0.03 0.04 0.04 0.08 0.08 0.04 0.04 0.06 0.04 0.03 0.04 0.01 0.00 0.01 0.07 0.15 0.10 0.02 0.00 0.00 0.00 0.00 0.02 0.13 0.25 0.25
0.03 0.04 0.04 0.05 0.06 0.07 0.07 0.07 0.06 0.04 0.03 0.05 0.05 0.04 0.05 0.07 0.04 0.05 0.05 0.05 0.06 0.06 0.04 0.05 0.02 0.03 0.07 0.07 0.09 0.05 0.01 0.00 0.00 0.00 0.00 0.00 0.02 0.03

GFSNE_prec_precacc24_150.txt.gz
Total_Precipitation_Accumulation
0.00 0.00 0.00 0.00 0.00 0.00 0.00 0.00 0.00 0.00 0.00 0.00 0.00 0.00 0.00 0.00 0.00 0.00 0.00 0.00 0.00 0.00 0.00 0.00 0.00 0.00 0.00 0.00 0.00 0.00 0.00 0.00 0.00 0.00 0.01 0.01 0.02 0.04
0.00 0.00 0.00 0.00 0.00 0.00 0.00 0.00 0.00 0.00 0.00 0.00 0.00 0.00 0.00 0.00 0.00 0.00 0.00 0.00 0.00 0.00 0.00 0.00 0.00 0.00 0.00 0.00 0.00 0.00 0.00 0.00 0.00 0.01 0.01 0.01 0.01 0.02
0.00 0.00 0.00 0.00 0.00 0.00 0.00 0.00 0.00 0.00 0.00 0.00 0.00 0.00 0.00 0.00 0.00 0.00 0.00 0.00 0.00 0.00 0.00 0.00 0.00 0.00 0.00 0.00 0.00 0.00 0.00 0.00 0.00 0.00 0.00 0.00 0.01 0.01
0.00 0.00 0.00 0.00 0.00 0.00 0.00 0.00 0.00 0.00 0.00 0.00 0.00 0.00 0.00 0.00 0.00 0.00 0.00 0.00 0.00 0.00 0.00 0.00 0.00 0.00 0.00 0.00 0.00 0.00 0.00 0.00 0.00 0.00 0.00 0.00 0.01 0.01
0.00 0.00 0.00 0.00 0.00 0.00 0.00 0.00 0.00 0.00 0.00 0.00 0.00 0.00 0.00 0.00 0.00 0.00 0.00 0.00 0.00 0.00 0.00 0.00 0.00 0.00 0.00 0.00 0.00 0.00 0.00 0.00 0.00 0.00 0.00 0.01 0.01 0.01
0.00 0.00 0.00 0.00 0.00 0.00 0.00 0.00 0.00 0.00 0.00 0.00 0.00 0.00 0.00 0.00 0.00 0.00 0.00 0.00 0.00 0.00 0.00 0.00 0.00 0.00 0.00 0.00 0.00 0.00 0.00 0.00 0.00 0.00 0.01 0.02 0.01 0.01
0.00 0.00 0.00 0.00 0.00 0.00 0.00 0.00 0.00 0.00 0.00 0.00 0.00 0.00 0.00 0.00 0.00 0.00 0.00 0.00 0.00 0.00 0.00 0.00 0.00 0.00 0.00 0.00 0.00 0.00 0.00 0.00 0.00 0.00 0.00 0.01 0.02 0.01
0.00 0.00 0.00 0.00 0.00 0.00 0.00 0.00 0.00 0.00 0.00 0.00 0.00 0.00 0.00 0.00 0.00 0.00 0.00 0.00 0.00 0.00 0.00 0.00 0.00 0.00 0.00 0.00 0.00 0.00 0.00 0.00 0.00 0.00 0.00 0.00 0.01 0.02
0.00 0.00 0.00 0.00 0.00 0.00 0.00 0.00 0.00 0.00 0.00 0.00 0.00 0.00 0.00 0.00 0.00 0.00 0.00 0.01 0.00 0.00 0.00 0.00 0.00 0.00 0.00 0.00 0.00 0.00 0.00 0.00 0.00 0.00 0.00 0.00 0.00 0.02
0.00 0.00 0.00 0.00 0.00 0.00 0.00 0.00 0.00 0.00 0.00 0.00 0.01 0.00 0.00 0.00 0.00 0.01 0.02 0.03 0.01 0.00 0.00 0.01 0.00 0.00 0.00 0.00 0.00 0.00 0.00 0.00 0.00 0.00 0.00 0.00 0.00 0.00
0.00 0.01 0.01 0.00 0.00 0.00 0.00 0.00 0.00 0.00 0.00 0.01 0.01 0.00 0.00 0.01 0.01 0.04 0.06 0.04 0.02 0.00 0.00 0.01 0.00 0.00 0.00 0.00 0.00 0.00 0.00 0.00 0.00 0.00 0.00 0.00 0.00 0.00
0.02 0.02 0.01 0.00 0.00 0.00 0.01 0.00 0.00 0.00 0.00 0.01 0.01 0.00 0.00 0.00 0.01 0.02 0.02 0.04 0.02 0.02 0.00 0.01 0.00 0.01 0.02 0.00 0.00 0.00 0.00 0.00 0.00 0.00 0.00 0.00 0.00 0.00
0.01 0.00 0.00 0.01 0.01 0.00 0.01 0.01 0.01 0.01 0.01 0.01 0.00 0.00 0.00 0.00 0.00 0.01 0.02 0.03 0.03 0.02 0.00 0.02 0.02 0.01 0.04 0.01 0.00 0.00 0.00 0.00 0.00 0.00 0.00 0.00 0.00 0.00
0.00 0.00 0.00 0.00 0.01 0.00 0.01 0.01 0.02 0.02 0.02 0.01 0.01 0.01 0.00 0.00 0.00 0.02 0.03 0.02 0.01 0.01 0.00 0.03 0.05 0.02 0.06 0.06 0.01 0.00 0.00 0.00 0.00 0.00 0.00 0.00 0.00 0.00
0.00 0.00 0.00 0.00 0.00 0.00 0.00 0.00 0.01 0.02 0.05 0.06 0.03 0.01 0.01 0.00 0.01 0.02 0.02 0.02 0.02 0.01 0.00 0.02 0.04 0.03 0.07 0.09 0.03 0.01 0.00 0.00 0.00 0.00 0.00 0.00 0.00 0.00
0.00 0.00 0.00 0.00 0.00 0.00 0.00 0.00 0.00 0.02 0.05 0.08 0.05 0.03 0.05 0.05 0.03 0.02 0.04 0.02 0.06 0.01 0.00 0.01 0.02 0.03 0.05 0.04 0.06 0.05 0.01 0.01 0.00 0.00 0.00 0.00 0.00 0.00
0.01 0.00 0.00 0.00 0.00 0.00 0.00 0.01 0.02 0.08 0.15 0.14 0.12 0.12 0.12 0.12 0.07 0.04 0.07 0.07 0.08 0.01 0.01 0.01 0.03 0.02 0.02 0.02 0.07 0.02 0.01 0.00 0.00 0.00 0.01 0.01 0.00 0.00
0.02 0.00 0.00 0.00 0.01 0.01 0.03 0.04 0.06 0.10 0.13 0.16 0.18 0.14 0.13 0.11 0.08 0.08 0.08 0.10 0.06 0.02 0.02 0.03 0.04 0.05 0.03 0.02 0.02 0.02 0.01 0.01 0.00 0.00 0.00 0.02 0.01 0.00
0.02 0.01 0.01 0.01 0.02 0.03 0.05 0.09 0.11 0.08 0.11 0.19 0.15 0.11 0.10 0.11 0.09 0.10 0.05 0.08 0.07 0.02 0.02 0.04 0.03 0.06 0.13 0.05 0.00 0.00 0.01 0.00 0.00 0.00 0.00 0.01 0.01 0.00
0.01 0.02 0.02 0.02 0.03 0.06 0.08 0.10 0.11 0.12 0.13 0.12 0.11 0.09 0.09 0.12 0.12 0.10 0.06 0.07 0.06 0.04 0.04 0.03 0.02 0.03 0.12 0.06 0.06 0.01 0.00 0.00 0.00 0.02 0.01 0.00 0.00 0.00
0.01 0.03 0.03 0.06 0.08 0.08 0.10 0.13 0.15 0.15 0.12 0.12 0.09 0.10 0.10 0.13 0.12 0.06 0.07 0.05 0.08 0.12 0.10 0.02 0.01 0.00 0.05 0.23 0.24 0.02 0.00 0.00 0.01 0.05 0.06 0.12 0.05 0.02
0.02 0.04 0.03 0.08 0.10 0.12 0.12 0.13 0.15 0.11 0.13 0.10 0.08 0.10 0.11 0.12 0.11 0.06 0.06 0.07 0.06 0.04 0.03 0.01 0.00 0.01 0.07 0.16 0.11 0.01 0.00 0.00 0.00 0.00 0.02 0.12 0.24 0.23
0.05 0.08 0.07 0.08 0.08 0.12 0.14 0.14 0.13 0.11 0.10 0.12 0.09 0.09 0.11 0.11 0.06 0.07 0.06 0.06 0.06 0.07 0.03 0.04 0.01 0.03 0.07 0.08 0.09 0.05 0.01 0.00 0.00 0.00 0.00 0.00 0.01 0.03

GFSNE_prec_precacc24_153.txt.gz
Total_Precipitation_Accumulation
0.00 0.00 0.00 0.00 0.00 0.00 0.00 0.00 0.00 0.00 0.00 0.00 0.00 0.00 0.00 0.00 0.00 0.00 0.00 0.00 0.00 0.00 0.00 0.00 0.00 0.00 0.00 0.00 0.00 0.00 0.00 0.00 0.00 0.00 0.00 0.00 0.01 0.01
0.00 0.00 0.00 0.00 0.00 0.00 0.00 0.00 0.00 0.00 0.00 0.00 0.00 0.00 0.00 0.00 0.00 0.00 0.00 0.00 0.00 0.00 0.00 0.00 0.00 0.00 0.00 0.00 0.00 0.00 0.00 0.00 0.00 0.00 0.00 0.01 0.01 0.01
0.00 0.00 0.00 0.00 0.00 0.00 0.00 0.00 0.00 0.00 0.00 0.00 0.00 0.00 0.00 0.00 0.00 0.00 0.00 0.00 0.00 0.00 0.00 0.00 0.00 0.00 0.00 0.00 0.00 0.00 0.00 0.00 0.00 0.00 0.00 0.00 0.00 0.01
0.00 0.00 0.00 0.00 0.00 0.00 0.00 0.00 0.00 0.00 0.00 0.00 0.00 0.00 0.00 0.00 0.00 0.00 0.00 0.00 0.00 0.00 0.00 0.00 0.00 0.00 0.00 0.00 0.00 0.00 0.00 0.00 0.00 0.00 0.00 0.00 0.00 0.01
0.00 0.00 0.00 0.00 0.00 0.00 0.00 0.00 0.00 0.00 0.00 0.00 0.00 0.00 0.00 0.00 0.00 0.00 0.00 0.00 0.00 0.00 0.00 0.00 0.00 0.00 0.00 0.00 0.00 0.00 0.00 0.00 0.00 0.00 0.00 0.00 0.00 0.00
0.00 0.00 0.00 0.00 0.00 0.00 0.00 0.00 0.00 0.00 0.00 0.00 0.00 0.00 0.00 0.00 0.00 0.00 0.00 0.00 0.00 0.00 0.00 0.00 0.00 0.00 0.00 0.00 0.00 0.00 0.00 0.00 0.00 0.00 0.00 0.00 0.00 0.00
0.00 0.00 0.00 0.00 0.00 0.00 0.00 0.00 0.00 0.00 0.00 0.00 0.00 0.00 0.00 0.00 0.00 0.00 0.00 0.00 0.00 0.00 0.00 0.00 0.00 0.00 0.00 0.00 0.00 0.00 0.00 0.00 0.00 0.00 0.00 0.00 0.00 0.00
0.00 0.00 0.00 0.00 0.00 0.00 0.00 0.00 0.00 0.00 0.00 0.00 0.00 0.00 0.00 0.00 0.00 0.00 0.00 0.00 0.00 0.00 0.00 0.00 0.00 0.00 0.00 0.00 0.00 0.00 0.00 0.00 0.00 0.00 0.00 0.00 0.00 0.00
0.00 0.00 0.00 0.00 0.00 0.00 0.00 0.00 0.00 0.00 0.00 0.00 0.00 0.00 0.00 0.00 0.00 0.00 0.00 0.00 0.00 0.00 0.00 0.00 0.00 0.00 0.00 0.00 0.00 0.00 0.00 0.00 0.00 0.00 0.00 0.00 0.00 0.00
0.00 0.00 0.00 0.00 0.00 0.00 0.00 0.00 0.00 0.00 0.00 0.00 0.01 0.00 0.00 0.00 0.00 0.00 0.01 0.02 0.01 0.00 0.00 0.01 0.00 0.00 0.00 0.00 0.00 0.00 0.00 0.00 0.00 0.00 0.00 0.00 0.00 0.00
0.00 0.01 0.01 0.00 0.00 0.00 0.00 0.00 0.00 0.00 0.00 0.01 0.01 0.00 0.00 0.01 0.01 0.04 0.05 0.04 0.03 0.00 0.00 0.01 0.00 0.00 0.00 0.00 0.00 0.00 0.00 0.00 0.00 0.00 0.00 0.00 0.00 0.00
0.02 0.02 0.01 0.00 0.00 0.00 0.01 0.01 0.00 0.00 0.00 0.01 0.01 0.00 0.00 0.00 0.01 0.03 0.03 0.06 0.03 0.04 0.00 0.01 0.00 0.01 0.01 0.00 0.00 0.00 0.00 0.00 0.00 0.00 0.00 0.00 0.00 0.00
0.01 0.00 0.00 0.01 0.01 0.01 0.01 0.01 0.01 0.00 0.01 0.01 0.00 0.00 0.00 0.01 0.02 0.03 0.04 0.04 0.05 0.04 0.00 0.01 0.02 0.01 0.03 0.01 0.00 0.00 0.00 0.00 0.00 0.00 0.00 0.00 0.00 0.00
0.00 0.00 0.00 0.00 0.01 0.01 0.01 0.01 0.02 0.03 0.02 0.02 0.02 0.01 0.01 0.02 0.02 0.05 0.08 0.07 0.02 0.01 0.01 0.04 0.04 0.01 0.04 0.04 0.01 0.00 0.00 0.00 0.00 0.00 0.00 0.00 0.00 0.00
0.00 0.00 0.00 0.00 0.01 0.00 0.00 0.01 0.01 0.02 0.05 0.08 0.05 0.02 0.02 0.03 0.08 0.14 0.16 0.17 0.13 0.04 0.01 0.03 0.05 0.02 0.05 0.07 0.03 0.00 0.00 0.00 0.00 0.00 0.00 0.00 0.00 0.00
0.00 0.00 0.00 0.00 0.00 0.00 0.00 0.01 0.01 0.02 0.06 0.10 0.07 0.05 0.07 0.11 0.18 0.18 0.21 0.17 0.19 0.08 0.02 0.02 0.04 0.06 0.08 0.04 0.05 0.04 0.01 0.01 0.00 0.00 0.00 0.00 0.00 0.00
0.02 0.00 0.00 0.00 0.00 0.00 0.00 0.01 0.02 0.09 0.15 0.15 0.16 0.18 0.18 0.18 0.17 0.17 0.23 0.21 0.16 0.06 0.04 0.02 0.04 0.06 0.05 0.04 0.07 0.02 0.00 0.00 0.00 0.00 0.00 0.01 0.00 0.00
0.03 0.01 0.00 0.01 0.01 0.01 0.03 0.04 0.06 0.10 0.13 0.18 0.21 0.19 0.20 0.19 0.16 0.18 0.20 0.20 0.12 0.04 0.05 0.06 0.05 0.12 0.09 0.04 0.02 0.02 0.01 0.00 0.00 0.00 0.00 0.02 0.01 0.00
0.02 0.01 0.01 0.01 0.02 0.03 0.06 0.10 0.12 0.08 0.12 0.21 0.18 0.15 0.15 0.16 0.16 0.18 0.12 0.14 0.11 0.05 0.05 0.08 0.06 0.07 0.13 0.05 0.00 0.00 0.00 0.00 0.00 0.00 0.00 0.00 0.01 0.00
0.01 0.02 0.02 0.03 0.03 0.06 0.08 0.11 0.12 0.13 0.14 0.13 0.13 0.11 0.12 0.16 0.17 0.14 0.10 0.10 0.09 0.07 0.07 0.07 0.04 0.03 0.10 0.04 0.04 0.01 0.00 0.00 0.00 0.02 0.01 0.00 0.00 0.00
0.01 0.03 0.04 0.06 0.08 0.09 0.11 0.15 0.17 0.16 0.13 0.14 0.12 0.13 0.13 0.17 0.16 0.09 0.10 0.08 0.10 0.14 0.13 0.04 0.01 0.01 0.07 0.23 0.24 0.02 0.00 0.00 0.00 0.04 0.06 0.11 0.05 0.02
0.02 0.04 0.03 0.08 0.11 0.14 0.14 0.15 0.17 0.13 0.14 0.12 0.11 0.13 0.13 0.15 0.13 0.09 0.09 0.09 0.09 0.06 0.05 0.04 0.03 0.02 0.07 0.15 0.10 0.01 0.00 0.00 0.00 0.00 0.02 0.12 0.22 0.22
0.06 0.09 0.07 0.09 0.10 0.13 0.16 0.16 0.15 0.12 0.11 0.14 0.12 0.11 0.13 0.12 0.07 0.08 0.08 0.07 0.08 0.09 0.06 0.06 0.03 0.04 0.07 0.07 0.08 0.05 0.01 0.00 0.00 0.00 0.00 0.00 0.01 0.02

GFSNE_prec_precacc24_156.txt.gz
Total_Precipitation_Accumulation
0.00 0.00 0.00 0.00 0.00 0.00 0.00 0.00 0.00 0.00 0.00 0.00 0.00 0.00 0.00 0.00 0.00 0.00 0.00 0.00 0.00 0.00 0.00 0.00 0.00 0.00 0.00 0.00 0.00 0.00 0.00 0.00 0.00 0.00 0.00 0.00 0.00 0.01
0.00 0.00 0.00 0.00 0.00 0.00 0.00 0.00 0.00 0.00 0.00 0.00 0.00 0.00 0.00 0.00 0.00 0.00 0.00 0.00 0.00 0.00 0.00 0.00 0.00 0.00 0.00 0.00 0.00 0.00 0.00 0.00 0.00 0.00 0.00 0.00 0.01 0.01
0.00 0.00 0.00 0.00 0.00 0.00 0.00 0.00 0.00 0.00 0.00 0.00 0.00 0.00 0.00 0.00 0.00 0.00 0.00 0.00 0.00 0.00 0.00 0.00 0.00 0.00 0.00 0.00 0.00 0.00 0.00 0.00 0.00 0.00 0.00 0.00 0.00 0.00
0.00 0.00 0.00 0.00 0.00 0.00 0.00 0.00 0.00 0.00 0.00 0.00 0.00 0.00 0.00 0.00 0.00 0.00 0.00 0.00 0.00 0.00 0.00 0.00 0.00 0.00 0.00 0.00 0.00 0.00 0.00 0.00 0.00 0.00 0.00 0.00 0.00 0.00
0.00 0.00 0.00 0.00 0.00 0.00 0.00 0.00 0.00 0.00 0.00 0.00 0.00 0.00 0.00 0.00 0.00 0.00 0.00 0.00 0.00 0.00 0.00 0.00 0.00 0.00 0.00 0.00 0.00 0.00 0.00 0.00 0.00 0.00 0.00 0.00 0.00 0.00
0.00 0.00 0.00 0.00 0.00 0.00 0.00 0.00 0.00 0.00 0.00 0.00 0.00 0.00 0.00 0.00 0.00 0.00 0.00 0.00 0.00 0.00 0.00 0.00 0.00 0.00 0.00 0.00 0.00 0.00 0.00 0.00 0.00 0.00 0.00 0.00 0.00 0.00
0.00 0.00 0.00 0.00 0.00 0.00 0.00 0.00 0.00 0.00 0.00 0.00 0.00 0.00 0.00 0.00 0.00 0.00 0.00 0.00 0.00 0.00 0.00 0.00 0.00 0.00 0.00 0.00 0.00 0.00 0.00 0.00 0.00 0.00 0.00 0.00 0.00 0.00
0.00 0.00 0.00 0.00 0.00 0.00 0.00 0.00 0.00 0.00 0.00 0.00 0.00 0.00 0.00 0.00 0.00 0.00 0.00 0.00 0.00 0.00 0.00 0.00 0.00 0.00 0.00 0.00 0.00 0.00 0.00 0.00 0.00 0.00 0.00 0.00 0.00 0.00
0.00 0.00 0.00 0.00 0.00 0.00 0.00 0.00 0.00 0.00 0.00 0.00 0.00 0.00 0.00 0.00 0.00 0.00 0.00 0.00 0.00 0.00 0.00 0.00 0.00 0.00 0.00 0.00 0.00 0.00 0.00 0.00 0.00 0.00 0.00 0.00 0.00 0.00
0.00 0.00 0.00 0.00 0.00 0.00 0.00 0.00 0.00 0.00 0.00 0.00 0.01 0.00 0.00 0.00 0.00 0.00 0.01 0.03 0.01 0.00 0.00 0.01 0.00 0.00 0.00 0.00 0.00 0.00 0.00 0.00 0.00 0.00 0.00 0.00 0.00 0.00
0.00 0.01 0.01 0.00 0.00 0.00 0.00 0.00 0.00 0.00 0.00 0.01 0.01 0.00 0.00 0.01 0.02 0.05 0.08 0.07 0.06 0.01 0.00 0.01 0.00 0.00 0.00 0.00 0.00 0.00 0.00 0.00 0.00 0.00 0.00 0.00 0.00 0.00
0.02 0.02 0.01 0.00 0.00 0.00 0.01 0.01 0.00 0.00 0.00 0.01 0.01 0.01 0.00 0.00 0.01 0.05 0.07 0.14 0.08 0.08 0.02 0.02 0.02 0.02 0.04 0.00 0.00 0.00 0.00 0.00 0.00 0.00 0.00 0.00 0.00 0.00
0.01 0.00 0.00 0.01 0.01 0.01 0.01 0.01 0.01 0.01 0.01 0.01 0.01 0.00 0.00 0.01 0.02 0.03 0.06 0.09 0.13 0.12 0.03 0.05 0.08 0.04 0.05 0.01 0.00 0.00 0.00 0.00 0.00 0.00 0.00 0.00 0.00 0.00
0.00 0.00 0.00 0.01 0.01 0.01 0.01 0.02 0.02 0.03 0.02 0.02 0.02 0.02 0.01 0.02 0.03 0.06 0.09 0.12 0.09 0.09 0.06 0.16 0.16 0.04 0.05 0.05 0.01 0.00 0.00 0.00 0.00 0.00 0.00 0.00 0.00 0.00
0.00 0.00 0.00 0.00 0.00 0.00 0.00 0.01 0.01 0.02 0.05 0.08 0.05 0.02 0.03 0.04 0.09 0.14 0.17 0.23 0.28 0.21 0.21 0.25 0.16 0.06 0.07 0.08 0.02 0.00 0.00 0.00 0.00 0.00 0.00 0.00 0.00 0.00
0.00 0.00 0.00 0.00 0.00 0.00 0.00 0.00 0.01 0.02 0.06 0.11 0.08 0.05 0.07 0.12 0.19 0.19 0.23 0.21 0.32 0.24 0.18 0.28 0.24 0.15 0.15 0.06 0.03 0.03 0.01 0.01 0.00 0.00 0.00 0.00 0.00 0.00
0.03 0.01 0.00 0.00 0.00 0.00 0.00 0.01 0.03 0.09 0.16 0.15 0.17 0.19 0.19 0.19 0.18 0.19 0.28 0.31 0.28 0.13 0.12 0.16 0.22 0.18 0.10 0.06 0.09 0.03 0.01 0.00 0.00 0.00 0.00 0.00 0.00 0.00
0.04 0.02 0.01 0.01 0.01 0.02 0.03 0.04 0.06 0.10 0.13 0.18 0.22 0.20 0.22 0.21 0.18 0.20 0.23 0.27 0.19 0.09 0.11 0.13 0.14 0.23 0.18 0.09 0.04 0.03 0.02 0.01 0.00 0.00 0.00 0.02 0.01 0.00
0.03 0.01 0.01 0.01 0.02 0.03 0.06 0.10 0.12 0.08 0.12 0.21 0.19 0.17 0.16 0.19 0.20 0.23 0.16 0.18 0.16 0.10 0.09 0.13 0.09 0.08 0.14 0.06 0.00 0.00 0.01 0.00 0.01 0.01 0.01 0.01 0.01 0.00
0.02 0.02 0.03 0.03 0.04 0.06 0.08 0.11 0.13 0.14 0.15 0.14 0.15 0.12 0.13 0.18 0.20 0.18 0.15 0.14 0.15 0.14 0.13 0.11 0.06 0.03 0.08 0.03 0.03 0.01 0.00 0.01 0.03 0.03 0.01 0.00 0.00 0.00
0.01 0.03 0.04 0.06 0.08 0.09 0.11 0.16 0.19 0.19 0.15 0.15 0.13 0.14 0.14 0.20 0.18 0.13 0.14 0.12 0.13 0.16 0.14 0.05 0.01 0.02 0.08 0.23 0.23 0.03 0.01 0.01 0.01 0.04 0.06 0.09 0.04 0.02
0.02 0.04 0.03 0.08 0.12 0.15 0.16 0.18 0.20 0.14 0.15 0.13 0.12 0.14 0.14 0.16 0.14 0.10 0.10 0.11 0.11 0.08 0.05 0.05 0.04 0.04 0.09 0.15 0.10 0.02 0.01 0.00 0.00 0.00 0.02 0.11 0.19 0.19
0.06 0.09 0.08 0.10 0.10 0.14 0.17 0.20 0.19 0.14 0.13 0.16 0.13 0.12 0.14 0.13 0.08 0.09 0.09 0.09 0.09 0.11 0.09 0.07 0.04 0.04 0.07 0.07 0.08 0.05 0.01 0.00 0.00 0.00 0.00 0.00 0.01 0.03

GFSNE_prec_precacc24_159.txt.gz
Total_Precipitation_Accumulation
0.00 0.00 0.00 0.00 0.00 0.00 0.00 0.00 0.00 0.00 0.00 0.00 0.00 0.00 0.00 0.00 0.00 0.00 0.00 0.00 0.00 0.00 0.00 0.00 0.00 0.00 0.00 0.00 0.00 0.00 0.00 0.00 0.00 0.00 0.00 0.00 0.00 0.01
0.00 0.00 0.00 0.00 0.00 0.00 0.00 0.00 0.00 0.00 0.00 0.00 0.00 0.00 0.00 0.00 0.00 0.00 0.00 0.00 0.00 0.00 0.00 0.00 0.00 0.00 0.00 0.00 0.00 0.00 0.00 0.00 0.00 0.00 0.00 0.00 0.01 0.01
0.00 0.00 0.00 0.00 0.00 0.00 0.00 0.00 0.00 0.00 0.00 0.00 0.00 0.00 0.00 0.00 0.00 0.00 0.00 0.00 0.00 0.00 0.00 0.00 0.00 0.00 0.00 0.00 0.00 0.00 0.00 0.00 0.00 0.00 0.00 0.00 0.00 0.00
0.00 0.00 0.00 0.00 0.00 0.00 0.00 0.00 0.00 0.00 0.00 0.00 0.00 0.00 0.00 0.00 0.00 0.00 0.00 0.00 0.00 0.00 0.00 0.00 0.00 0.00 0.00 0.00 0.00 0.00 0.00 0.00 0.00 0.00 0.00 0.00 0.00 0.00
0.00 0.00 0.00 0.00 0.00 0.00 0.00 0.00 0.00 0.00 0.00 0.00 0.00 0.00 0.00 0.00 0.00 0.00 0.00 0.00 0.00 0.00 0.00 0.00 0.00 0.00 0.00 0.00 0.00 0.00 0.00 0.00 0.00 0.00 0.00 0.00 0.00 0.00
0.00 0.00 0.00 0.00 0.00 0.00 0.00 0.00 0.00 0.00 0.00 0.00 0.00 0.00 0.00 0.00 0.00 0.00 0.00 0.00 0.00 0.00 0.00 0.00 0.00 0.00 0.00 0.00 0.00 0.00 0.00 0.00 0.00 0.00 0.00 0.00 0.00 0.00
0.00 0.00 0.00 0.00 0.00 0.00 0.00 0.00 0.00 0.00 0.00 0.00 0.00 0.00 0.00 0.00 0.00 0.00 0.00 0.00 0.00 0.00 0.00 0.00 0.00 0.00 0.00 0.00 0.00 0.00 0.00 0.00 0.00 0.00 0.00 0.00 0.00 0.00
0.00 0.00 0.00 0.00 0.00 0.00 0.00 0.00 0.00 0.00 0.00 0.00 0.00 0.00 0.00 0.00 0.00 0.00 0.00 0.00 0.00 0.00 0.00 0.00 0.00 0.00 0.00 0.00 0.00 0.00 0.00 0.00 0.00 0.00 0.00 0.00 0.00 0.00
0.00 0.00 0.00 0.00 0.00 0.00 0.00 0.00 0.00 0.00 0.00 0.00 0.00 0.00 0.00 0.00 0.00 0.00 0.00 0.00 0.00 0.00 0.00 0.00 0.00 0.00 0.00 0.00 0.00 0.00 0.00 0.00 0.00 0.00 0.00 0.00 0.00 0.00
0.00 0.00 0.00 0.00 0.00 0.00 0.00 0.00 0.00 0.00 0.00 0.00 0.01 0.00 0.00 0.00 0.00 0.01 0.02 0.03 0.01 0.00 0.01 0.02 0.00 0.00 0.00 0.00 0.00 0.00 0.00 0.00 0.00 0.00 0.00 0.01 0.01 0.01
0.00 0.01 0.01 0.00 0.00 0.00 0.00 0.00 0.00 0.00 0.00 0.01 0.01 0.01 0.00 0.01 0.02 0.06 0.08 0.08 0.07 0.01 0.00 0.02 0.01 0.00 0.00 0.00 0.00 0.00 0.01 0.00 0.00 0.00 0.00 0.00 0.01 0.01
0.02 0.02 0.01 0.00 0.00 0.00 0.01 0.01 0.00 0.00 0.00 0.01 0.01 0.01 0.01 0.00 0.01 0.05 0.07 0.15 0.10 0.11 0.02 0.03 0.02 0.02 0.09 0.02 0.00 0.00 0.01 0.01 0.00 0.00 0.00 0.01 0.01 0.00
0.01 0.00 0.00 0.01 0.01 0.01 0.02 0.02 0.02 0.02 0.01 0.01 0.01 0.00 0.00 0.01 0.02 0.03 0.07 0.10 0.16 0.16 0.03 0.07 0.16 0.10 0.13 0.05 0.01 0.00 0.02 0.03 0.02 0.00 0.00 0.00 0.00 0.00
0.00 0.00 0.00 0.01 0.02 0.01 0.02 0.02 0.03 0.04 0.03 0.02 0.02 0.02 0.01 0.02 0.03 0.06 0.09 0.12 0.09 0.10 0.07 0.19 0.31 0.14 0.13 0.16 0.07 0.01 0.03 0.03 0.02 0.01 0.00 0.00 0.00 0.00
0.00 0.00 0.01 0.01 0.01 0.01 0.01 0.01 0.02 0.03 0.06 0.08 0.05 0.02 0.03 0.04 0.09 0.14 0.17 0.23 0.28 0.21 0.22 0.29 0.28 0.19 0.17 0.15 0.07 0.04 0.03 0.03 0.02 0.01 0.00 0.00 0.00 0.00
0.00 0.00 0.01 0.00 0.01 0.00 0.00 0.01 0.01 0.02 0.07 0.11 0.08 0.05 0.07 0.12 0.19 0.19 0.23 0.22 0.34 0.26 0.21 0.36 0.34 0.28 0.32 0.17 0.07 0.07 0.03 0.03 0.01 0.00 0.00 0.00 0.00 0.00
0.04 0.01 0.01 0.01 0.00 0.00 0.01 0.01 0.03 0.09 0.16 0.15 0.17 0.19 0.19 0.20 0.18 0.20 0.29 0.32 0.31 0.15 0.15 0.18 0.30 0.31 0.23 0.19 0.18 0.08 0.02 0.01 0.00 0.00 0.01 0.00 0.00 0.00
0.05 0.03 0.02 0.01 0.00 0.01 0.03 0.04 0.06 0.10 0.13 0.18 0.22 0.21 0.24 0.23 0.19 0.20 0.24 0.29 0.21 0.11 0.14 0.18 0.21 0.31 0.28 0.20 0.10 0.06 0.04 0.02 0.00 0.02 0.03 0.02 0.01 0.00
0.02 0.01 0.01 0.01 0.02 0.04 0.06 0.10 0.12 0.08 0.12 0.21 0.21 0.19 0.18 0.21 0.21 0.24 0.17 0.21 0.18 0.11 0.10 0.15 0.15 0.15 0.16 0.08 0.02 0.02 0.02 0.01 0.03 0.05 0.03 0.01 0.01 0.00
0.01 0.02 0.02 0.03 0.03 0.06 0.08 0.11 0.13 0.14 0.15 0.15 0.16 0.14 0.15 0.19 0.21 0.19 0.17 0.17 0.16 0.16 0.17 0.15 0.08 0.05 0.08 0.03 0.03 0.01 0.00 0.03 0.05 0.05 0.02 0.01 0.00 0.00
0.01 0.02 0.03 0.05 0.08 0.09 0.11 0.16 0.20 0.20 0.16 0.17 0.15 0.15 0.15 0.21 0.19 0.14 0.16 0.14 0.15 0.16 0.15 0.06 0.02 0.03 0.09 0.20 0.21 0.03 0.02 0.04 0.02 0.04 0.05 0.07 0.04 0.02
0.01 0.03 0.03 0.08 0.12 0.16 0.16 0.19 0.21 0.17 0.19 0.16 0.13 0.15 0.15 0.16 0.14 0.11 0.11 0.12 0.11 0.09 0.05 0.06 0.04 0.09 0.09 0.12 0.08 0.03 0.03 0.02 0.01 0.00 0.02 0.08 0.14 0.15
0.05 0.09 0.09 0.10 0.12 0.17 0.22 0.27 0.25 0.18 0.13 0.16 0.14 0.13 0.14 0.14 0.09 0.11 0.10 0.09 0.09 0.11 0.09 0.07 0.05 0.04 0.05 0.06 0.08 0.05 0.02 0.00 0.00 0.00 0.00 0.00 0.01 0.02